FW3667 Weather Reports


Display with metric or nautical units.
time (UTC)temp
F
wind
direction
speed
MPH
gust
MPH
rain 1hr
in
rain 24hr
in
rain mn
in
humidity
%
barometer
mb
20260505024508 63 115 0.0 2.0 0.00 0.00 0.00 72 1002.7
20260505023012 64 139 0.0 3.0 0.00 0.00 0.00 71 1002.5
20260505021505 64 51 0.0 1.0 0.00 0.00 0.00 70 1002.3
20260505020004 65 51 0.0 1.0 0.00 0.00 0.00 69 1001.9
20260505014504 66 51 0.0 2.0 0.00 0.00 0.00 67 1001.5
20260505013003 67 134 0.0 1.0 0.00 0.00 0.00 65 1001.5
20260505011500 69 134 0.0 5.0 0.00 0.00 0.00 62 1001.4
20260505010118 70 256 0.0 3.0 0.00 0.00 0.00 60 1001.4
20260505004600 71 238 2.0 7.0 0.00 0.00 0.00 57 1001.0
20260505003100 72 152 2.0 5.0 0.00 0.00 0.00 56 1001.1
20260505001529 73 341 0.0 5.0 0.00 0.00 0.00 55 1001.1
20260505000040 74 225 1.0 6.0 0.00 0.00 0.00 54 1000.6
20260504234557 74 198 1.0 6.0 0.00 0.00 0.00 53 1000.7
20260504233057 75 221 1.0 8.0 0.00 0.00 0.00 52 1000.9
20260504231558 76 196 2.0 6.0 0.00 0.00 0.00 50 1001.1
20260504230053 76 202 1.0 10.0 0.00 0.00 0.00 50 1001.1
20260504224552 78 202 2.0 5.0 0.00 0.00 0.00 48 1001.2
20260504223100 79 222 1.0 8.0 0.00 0.00 0.00 46 1001.2
20260504221603 79 207 2.0 6.0 0.00 0.00 0.00 47 1001.2
20260504220047 79 75 1.0 9.0 0.00 0.00 0.00 47 1001.4
20260504214549 80 89 1.0 9.0 0.00 0.00 0.00 46 1001.4
20260504213059 79 202 2.0 6.0 0.00 0.00 0.00 47 1001.5
20260504211548 80 91 1.0 6.0 0.00 0.00 0.00 45 1001.5
20260504210040 80 9 2.0 7.0 0.00 0.00 0.00 47 1001.7
20260504204640 80 110 2.0 8.0 0.00 0.00 0.00 46 1001.9
20260504203047 81 237 3.0 7.0 0.00 0.00 0.00 46 1002.1
20260504201534 81 207 2.0 5.0 0.00 0.00 0.00 45 1002.3
20260504200031 80 32 1.0 6.0 0.00 0.00 0.00 45 1002.5
20260504194538 80 114 2.0 11.0 0.00 0.00 0.00 47 1002.6
20260504193027 80 204 2.0 9.0 0.00 0.00 0.00 46 1002.8
20260504191535 80 116 2.0 7.0 0.00 0.00 0.00 45 1003.0
20260504190020 80 267 2.0 7.0 0.00 0.00 0.00 44 1003.2
20260504184520 79 206 2.0 11.0 0.00 0.00 0.00 46 1003.2
20260504183017 79 232 2.0 8.0 0.00 0.00 0.00 45 1003.3
20260504181518 79 204 1.0 11.0 0.00 0.00 0.00 44 1003.3
20260504180016 78 136 2.0 7.0 0.00 0.00 0.00 47 1003.4
20260504174510 78 149 4.0 11.0 0.00 0.00 0.00 46 1003.5
20260504173010 78 57 1.0 8.0 0.00 0.00 0.00 52 1003.7
20260504171505 77 335 2.0 11.0 0.00 0.00 0.00 48 1004.0
20260504081502 55 192 0.0 1.0 0.00 0.00 0.00 86 1006.3
20260504050006 51 281 0.0 0.0 0.00 0.00 0.00 89 1008.0
20260504044504 52 281 0.0 0.0 0.00 0.00 0.00 87 1008.2
20260504043004 53 281 0.0 0.0 0.00 0.00 0.00 85 1008.3
20260504041504 54 281 0.0 0.0 0.00 0.00 0.00 84 1008.6
20260504040006 54 281 0.0 0.0 0.00 0.00 0.00 84 1008.6
20260504034532 55 281 0.0 0.0 0.00 0.00 0.00 82 1008.7
20260504033035 56 281 0.0 1.0 0.00 0.00 0.00 80 1008.9
20260504031530 57 281 0.0 1.0 0.00 0.00 0.00 79 1008.9
20260504030029 57 279 0.0 0.0 0.00 0.00 0.00 79 1008.9